Regional Weather Roundup
Issued by NWS

Home | Current Version | Previous Version | Graphics & Text | Print | Product List | Glossary On
Versions: 1 2 3 4 5 6 7 8 9 10 11 12 13 14 15 16 17 18 19 20 21 22 23 24 25 26 27 28 29 30 31 32 33 34 35 36 37 38 39 40 41 42 43 44 45 46 47 48 49 50
000
ASUS43 KMPX 221501
RWRMN
WEATHER ROUNDUP FOR MINNESOTA
NATIONAL WEATHER SERVICE TWIN CITIES/CHANHASSEN MN
900 AM CST WED NOV 22 2017


NOTE: "FAIR" INDICATES FEW OR NO CLOUDS BELOW 12,000 FEET WITH NO
SIGNIFICANT WEATHER AND/OR OBSTRUCTIONS TO VISIBILITY. N/A MEANS
CURRENT SKY AND/OR WEATHER CONDITIONS ARE NOT AVAILABLE.

MNZ060>063-068>070-221600-
   Twin Cities Metro

CITY           SKY/WX    TMP DP  RH WIND       PRES   REMARKS
TWIN CITIES    CLOUDY    19  13  77 S6        30.31F WCI  11
ST PAUL        CLOUDY    19  13  77 S6        30.33F WCI  11
CRYSTAL        CLOUDY    18  10  71 S7        30.29F WCI   9
BLAINE         MOSUNNY   19  16  86 S3        30.29F
LAKEVILLE      CLOUDY    18  12  79 S5        30.30F WCI  11
EDEN PRAIRIE   CLOUDY    18  12  77 S6        30.30F WCI  10
SOUTH ST PAUL  CLOUDY    19  13  76 S5        30.32F WCI  13
LAKE ELMO      FAIR      19  14  79 S5        30.31F WCI  13
$$
MNZ001>005-007-008-013>017-022>024-027-028-221600-
   Northwest Minnesota

CITY           SKY/WX    TMP DP  RH WIND       PRES   REMARKS
BEMIDJI        CLOUDY    11   8  87 S7        30.12F WCI   0
HALLOCK        LGT SNOW  16  10  79 S15       30.08F WCI   1
ROSEAU         CLOUDY    14   9  79 SW10      30.09S WCI   1
WARROAD        CLOUDY    12   9  85 SW9       30.09S WCI   0
CROOKSTON      LGT SNOW  16  10  79 S14       30.12F WCI   1
FOSSTON        CLOUDY    12   9  85 S17       30.12F WCI  -5
DETROIT LAKES  CLOUDY    18  12  79 S10       30.15F WCI   6
MOORHEAD       MOSUNNY   16   9  73 S14G20    30.16F WCI   1
PARK RAPIDS    CLOUDY    13   9  84 S9        30.15F WCI   1
MAHNOMEN       CLOUDY    14  10  83 S16       30.14S WCI  -2
$$
MNZ006-009>011-018-025>026-221600-
   North Central Minnesota

CITY           SKY/WX    TMP DP  RH WIND       PRES   REMARKS
BAUDETTE       CLOUDY    12   8  84 S8        30.09F WCI   0
FLAG ISLAND    FLURRIES  14  10  85 S7        30.07F WCI   4
INTL FALLS       N/A      8   4  83 S3        30.12F
WASKISH        CLOUDY    12  10  92 S6        30.12F WCI   3
BIG FORK       CLOUDY    12   9  85 S3        30.13F
LONGVILLE      CLOUDY    12  10  92 S7        30.17F WCI   2
GRAND RAPIDS   CLOUDY    12   9  87 S7        30.19F WCI   1
CRANE LAKE     CLOUDY     9   7  92 CALM      30.19F
ORR            CLOUDY     7   3  85 CALM      30.13S
COOK           CLOUDY    10   7  85 CALM      30.16F
WALKER         FAIR      12   8  85 SW12      30.15F WCI  -2
$$
MNZ012-019>021-037-221600-
   Northeast Minnesota

CITY           SKY/WX    TMP DP  RH WIND       PRES   REMARKS
DULUTH         MOSUNNY   12  10  92 W3        30.19F
ELY            CLOUDY    10   7  85 SW6       30.17F WCI   1
HIBBING        CLOUDY     9   7  92 S5        30.17F WCI   1
EVELETH        CLOUDY    12   9  85 SW3       30.18F
DULUTH HARBOR  MOSUNNY   18  12  79 SW7       30.27F WCI   8
TWO HARBORS    MOSUNNY   19  12  73 W6        30.20F WCI  11
SILVER BAY     CLOUDY    14  10  85 W3        30.20F
GRAND MARAIS     N/A     21  13  71 VRB3      30.22S
G MARAIS ARPRT SUNNY     10   7  85 CALM      30.13S
$$
MNZ029>031-032-039>041-046>048-054>057-064-221600-
   West Central Minnesota

CITY           SKY/WX    TMP DP  RH WIND       PRES   REMARKS
FERGUS FALLS   CLOUDY    16  10  79 S15       30.23F WCI   1
WHEATON        CLOUDY    18  10  73 S10       30.22F WCI   6
MORRIS         MOSUNNY   18  12  79 S12       30.21F WCI   5
ALEXANDRIA     MOSUNNY   16  11  80 S15       30.21F WCI   1
ELBOW LAKE     FAIR      15  12  85 S15       30.21F FOG     WCI   0
WADENA         MOSUNNY   12  10  92 SW9       30.18F WCI   0
GLENWOOD       MOSUNNY   16  12  86 S13       30.22F WCI   2
APPLETON       MOSUNNY   19  10  68 S8        30.23F WCI   9
BENSON         MOSUNNY   16  10  79 SW9       30.25F WCI   4
ORTONVILLE     CLOUDY    18  10  73 MISG      30.20F
MADISON        MOSUNNY   19  12  73 S10       30.23F WCI   8
WILLMAR        FAIR      18  12  79 S3        30.28S
$$
MNZ033>034-036-042>043-049>051-058-059-221600-
   Central Minnesota

CITY           SKY/WX    TMP DP  RH WIND       PRES   REMARKS
ST CLOUD       SUNNY     16  13  88 S9        30.26F WCI   4
SAUK CENTRE    FAIR      15  11  85 SW8       30.25S WCI   3
PAYNESVILLE    MOSUNNY   17  14  89 SW7       30.26S WCI   7
AITKIN         MOSUNNY   14  10  85 S6        30.19F WCI   5
PINE RIVER     CLOUDY    10   9  92 S6        30.22F WCI   1
BRAINERD       MOSUNNY   14  10  84 S7        30.22F WCI   4
STAPLES        MOSUNNY   12  10  92 S8        30.19F WCI   1
LITTLE FALLS   CLOUDY    16  10  79 S6        30.24F WCI   7
LITCHFIELD     MOSUNNY   18  14  86 S3        30.27S
BUFFALO        CLOUDY    17  13  82 S5        30.30S WCI  10
MAPLE LAKE     CLOUDY    19  17  89 SW7       30.28F WCI  10
HUTCHINSON     CLOUDY    17  13  86 S6        30.29F WCI   8
$$
MNZ037-044-045-052-053-221600-
   East Central Minnesota

CITY           SKY/WX    TMP DP  RH WIND       PRES   REMARKS
PRINCETON      CLOUDY    18  16  93 S3        30.26F
MORA           CLOUDY    18  12  79 S5        30.27F WCI  11
CAMBRIDGE      CLOUDY    18  10  73 S5        30.28F WCI  11
RUSH CITY      CLOUDY    16  12  86 S5        30.28F WCI   9
MOOSE LAKE     CLOUDY    16  12  86 S3        30.22F
HINCKLEY       FAIR      18  14  86 S6        30.26F WCI   9
CLOQUET        MOSUNNY   12   9  85 S3        30.21F
MCGREGOR       CLOUDY    16  14  93 S5        30.21F WCI   9
$$
MNZ071>073-080-081-089-090-097-098-221600-
   Southwest Minnesota

CITY           SKY/WX    TMP DP  RH WIND       PRES   REMARKS
MONTEVIDEO     MOSUNNY   18  12  79 SW8       30.26F WCI   7
GRANITE FALLS  CLOUDY    19  14  80 S12       30.29F WCI   7
CANBY          MOSUNNY   20  14  77 SE7       30.23F WCI  11
MARSHALL       MOSUNNY   18  11  74 S10       30.26F WCI   6
REDWOOD FALLS  MOSUNNY   17   9  70 S9        30.29S WCI   6
OLIVIA         MOSUNNY   18  14  86 S8        30.28S WCI   7
PIPESTONE      CLOUDY    18  10  73 SW10      30.22F WCI   6
WINDOM           N/A     18   5  57 S8        30.27S WCI   7
WORTHINGTON    CLOUDY    18  10  71 S14       30.27F WCI   4
JACKSON        CLOUDY    19  12  73 S12       30.28F WCI   7
SLAYTON        MOSUNNY   16   8  72 S8        30.25S WCI   5
$$
MNZ065>067-074>077-082>085-091>093-221600-
   South Central Minnesota

CITY           SKY/WX    TMP DP  RH WIND       PRES   REMARKS
MANKATO        CLOUDY    16  12  84 S8        30.32F WCI   5
NEW ULM        CLOUDY    16  10  79 CALM      30.30F
ST JAMES       CLOUDY    18  12  79 S8        30.31F WCI   7
FAIRMONT       SUNNY     18  12  77 S8        30.31F WCI   8
GLENCOE        CLOUDY    18  14  86 S7        30.29F WCI   8
FARIBAULT      CLOUDY    18  14  86 S7        30.31F WCI   8
OWATONNA       CLOUDY    18  12  79 S5        30.31F WCI  11
WASECA         CLOUDY    18  14  86 S6        30.33F WCI   9
ALBERT LEA     CLOUDY    18  12  79 S5        30.32S WCI  11
$$
MNZ078>079-086>088-094>096-221600-
   Southeast Minnesota

CITY           SKY/WX    TMP DP  RH WIND       PRES   REMARKS
ROCHESTER      CLOUDY    18  13  80 SW6       30.33R WCI  10
RED WING       CLOUDY    19  10  68 W3        30.33S
STANTON        SUNNY     18  13  82 S3        30.32F
DODGE CENTER   SUNNY     18  12  79 S5        30.31S WCI  11
WINONA         SUNNY     21  12  68 CALM      30.37S
AUSTIN         CLOUDY    18  12  79 CALM      30.32S
PRESTON        CLOUDY    17  11  78 CALM      30.34R
$$
ABBREVIATIONS USED IN REMARKS
   TC - TEMPERATURES IN CELSIUS
  WCI - WIND CHILL INDEX
   HX - HEAT INDEX
  VSB - VISIBILITY
$$




USA.gov is the U.S. government's official web portal to all federal, state and local government web resources and services.